Time,TemperatureF,DewpointF,PressureIn,WindDirection,WindDirectionDegrees,WindSpeedMPH,WindSpeedGustMPH,Humidity,HourlyPrecipIn,Conditions,Clouds,dailyrainin,SoftwareType,DateUTC
2013-06-20 00:02:00,67.8,30.7,29.81,West,261,0.0,0.0,25,0.00,,SCT220,0.00,VWS V13.01,2013-06-20 06:02:00,
2013-06-20 00:07:00,67.8,29.7,29.81,West,261,0.0,0.0,24,0.00,,SCT220,0.00,VWS V13.01,2013-06-20 06:07:00,
2013-06-20 00:13:00,67.8,29.7,29.81,West,261,0.0,0.0,24,0.00,,SCT220,0.00,VWS V13.01,2013-06-20 06:13:00,
2013-06-20 00:18:00,67.6,29.6,29.81,West,261,0.0,0.0,24,0.00,,SCT220,0.00,VWS V13.01,2013-06-20 06:18:00,
2013-06-20 00:23:00,67.1,29.1,29.81,West,261,0.0,0.0,24,0.00,,SCT220,0.00,VWS V13.01,2013-06-20 06:23:00,
2013-06-20 00:28:00,66.7,28.8,29.81,West,261,0.0,0.0,24,0.00,,SCT220,0.00,VWS V13.01,2013-06-20 06:28:00,
2013-06-20 00:33:00,66.6,28.7,29.81,West,261,0.0,0.0,24,0.00,,SCT220,0.00,VWS V13.01,2013-06-20 06:33:00,
2013-06-20 00:38:00,66.6,27.6,29.81,West,261,0.0,0.0,23,0.00,,SCT220,0.00,VWS V13.01,2013-06-20 06:38:00,
2013-06-20 00:43:00,66.6,27.6,29.81,West,261,0.0,0.0,23,0.00,,SCT220,0.00,VWS V13.01,2013-06-20 06:43:00,
2013-06-20 00:48:00,66.2,27.3,29.81,West,261,0.0,0.0,23,0.00,,SCT220,0.00,VWS V13.01,2013-06-20 06:48:00,
2013-06-20 00:53:00,65.7,27.9,29.81,West,261,0.0,0.0,24,0.00,,SCT220,0.00,VWS V13.01,2013-06-20 06:53:00,
2013-06-20 00:58:00,65.1,27.5,29.81,West,261,0.0,0.0,24,0.00,,SCT220,0.00,VWS V13.01,2013-06-20 06:58:00,
2013-06-20 01:03:00,64.8,27.2,29.81,West,261,0.0,0.0,24,0.00,,FEW220,0.00,VWS V13.01,2013-06-20 07:03:00,
2013-06-20 01:08:00,64.2,26.7,29.81,West,261,0.0,0.0,24,0.00,,FEW220,0.00,VWS V13.01,2013-06-20 07:08:00,
2013-06-20 01:13:00,63.9,26.4,29.81,West,261,0.0,0.0,24,0.00,,FEW220,0.00,VWS V13.01,2013-06-20 07:13:00,
2013-06-20 01:18:00,63.3,26.9,29.81,West,261,0.0,0.0,25,0.00,,FEW220,0.00,VWS V13.01,2013-06-20 07:18:00,
2013-06-20 01:23:00,62.8,26.5,29.81,West,261,0.0,0.0,25,0.00,,FEW220,0.00,VWS V13.01,2013-06-20 07:23:00,
2013-06-20 01:28:00,61.9,26.6,29.81,West,261,0.0,0.0,26,0.00,,FEW220,0.00,VWS V13.01,2013-06-20 07:28:00,
2013-06-20 01:33:00,61.3,27.1,29.81,West,261,0.0,0.0,27,0.00,,FEW220,0.00,VWS V13.01,2013-06-20 07:33:00,
2013-06-20 01:38:00,60.8,27.5,29.81,West,261,0.0,0.0,28,0.00,,FEW220,0.00,VWS V13.01,2013-06-20 07:38:00,
2013-06-20 01:43:00,60.4,28.1,29.81,West,261,0.0,0.0,29,0.00,,FEW220,0.00,VWS V13.01,2013-06-20 07:43:00,
2013-06-20 01:48:00,60.1,28.6,29.81,West,261,0.0,0.0,30,0.00,,FEW220,0.00,VWS V13.01,2013-06-20 07:48:00,
2013-06-20 01:53:00,59.7,28.3,29.81,West,261,0.0,0.0,30,0.00,,FEW220,0.00,VWS V13.01,2013-06-20 07:53:00,
2013-06-20 01:58:00,59.5,28.1,29.84,West,261,0.0,0.0,30,0.00,,FEW220,0.00,VWS V13.01,2013-06-20 07:58:00,
2013-06-20 02:03:00,59.5,27.3,29.84,West,261,0.0,0.0,29,0.00,,FEW220,0.00,VWS V13.01,2013-06-20 08:03:00,
2013-06-20 02:08:00,59.7,27.4,29.84,West,261,0.0,0.0,29,0.00,,FEW220,0.00,VWS V13.01,2013-06-20 08:08:00,
2013-06-20 02:13:00,59.5,27.3,29.84,West,261,0.0,0.0,29,0.00,,FEW220,0.00,VWS V13.01,2013-06-20 08:13:00,
2013-06-20 02:18:00,59.4,26.3,29.84,West,261,0.0,0.0,28,0.00,,FEW220,0.00,VWS V13.01,2013-06-20 08:18:00,
2013-06-20 02:23:00,59.4,26.3,29.81,West,261,0.0,0.0,28,0.00,,FEW220,0.00,VWS V13.01,2013-06-20 08:23:00,
2013-06-20 02:29:00,59.2,25.2,29.81,West,261,0.0,0.0,27,0.00,,FEW220,0.00,VWS V13.01,2013-06-20 08:29:00,
2013-06-20 02:34:00,58.8,25.8,29.81,West,261,0.0,0.0,28,0.00,,FEW220,0.00,VWS V13.01,2013-06-20 08:34:00,
2013-06-20 02:39:00,58.5,25.5,29.84,West,261,0.0,0.0,28,0.00,,FEW220,0.00,VWS V13.01,2013-06-20 08:39:00,
2013-06-20 02:44:00,58.1,26.0,29.84,West,261,0.0,0.0,29,0.00,,FEW220,0.00,VWS V13.01,2013-06-20 08:44:00,
2013-06-20 02:49:00,57.7,25.7,29.84,West,261,0.0,0.0,29,0.00,,FEW220,0.00,VWS V13.01,2013-06-20 08:49:00,
2013-06-20 02:54:00,57.6,25.6,29.84,West,261,0.0,0.0,29,0.00,,FEW220,0.00,VWS V13.01,2013-06-20 08:54:00,
2013-06-20 02:59:00,57.4,25.4,29.84,West,261,0.0,0.0,29,0.00,,FEW220,0.00,VWS V13.01,2013-06-20 08:59:00,
2013-06-20 03:04:00,57.4,25.4,29.84,West,261,0.0,0.0,29,0.00,,FEW220,0.00,VWS V13.01,2013-06-20 09:04:00,
2013-06-20 03:09:00,57.0,25.1,29.84,West,261,0.0,0.0,29,0.00,,FEW220,0.00,VWS V13.01,2013-06-20 09:09:00,
2013-06-20 03:14:00,57.0,25.9,29.84,West,261,0.0,0.0,30,0.00,,FEW220,0.00,VWS V13.01,2013-06-20 09:14:00,
2013-06-20 03:19:00,56.8,25.8,29.84,West,261,0.0,0.0,30,0.00,,FEW220,0.00,VWS V13.01,2013-06-20 09:19:00,
2013-06-20 03:24:00,57.0,25.9,29.84,West,261,0.0,0.0,30,0.00,,FEW220,0.00,VWS V13.01,2013-06-20 09:24:00,
2013-06-20 03:29:00,57.0,25.9,29.84,West,261,0.0,0.0,30,0.00,,FEW220,0.00,VWS V13.01,2013-06-20 09:29:00,
2013-06-20 03:34:00,57.2,24.4,29.84,West,261,0.0,0.0,28,0.00,,FEW220,0.00,VWS V13.01,2013-06-20 09:34:00,
2013-06-20 03:39:00,57.4,23.7,29.84,West,261,0.0,0.0,27,0.00,,FEW220,0.00,VWS V13.01,2013-06-20 09:39:00,
2013-06-20 03:44:00,57.7,23.1,29.84,West,261,0.0,0.0,26,0.00,,FEW220,0.00,VWS V13.01,2013-06-20 09:44:00,
2013-06-20 03:49:00,58.1,23.4,29.84,West,261,0.0,0.0,26,0.00,,FEW220,0.00,VWS V13.01,2013-06-20 09:49:00,
2013-06-20 03:54:00,57.9,23.3,29.84,West,261,0.0,0.0,26,0.00,,FEW220,0.00,VWS V13.01,2013-06-20 09:54:00,
2013-06-20 03:59:00,57.4,22.8,29.84,West,261,0.0,0.0,26,0.00,,FEW220,0.00,VWS V13.01,2013-06-20 09:59:00,
2013-06-20 04:04:00,57.2,23.5,29.84,West,261,0.0,0.0,27,0.00,,FEW220,0.00,VWS V13.01,2013-06-20 10:04:00,
2013-06-20 04:09:00,56.8,23.2,29.84,West,261,0.0,0.0,27,0.00,,FEW220,0.00,VWS V13.01,2013-06-20 10:09:00,
2013-06-20 04:14:00,57.2,22.6,29.84,West,261,0.0,0.0,26,0.00,,FEW220,0.00,VWS V13.01,2013-06-20 10:14:00,
2013-06-20 04:19:00,57.2,22.6,29.84,West,261,0.0,0.0,26,0.00,,FEW220,0.00,VWS V13.01,2013-06-20 10:19:00,
2013-06-20 04:24:00,57.4,22.8,29.84,SSE,157,0.0,3.6,26,0.00,,FEW220,0.00,VWS V13.01,2013-06-20 10:24:00,
2013-06-20 04:29:00,56.8,23.2,29.84,SSE,156,0.0,3.6,27,0.00,,FEW220,0.00,VWS V13.01,2013-06-20 10:29:00,
2013-06-20 04:34:00,56.5,22.9,29.84,SSE,156,0.0,0.0,27,0.00,,FEW220,0.00,VWS V13.01,2013-06-20 10:34:00,
2013-06-20 04:39:00,55.9,22.5,29.87,SSE,156,0.0,0.0,27,0.00,,FEW220,0.00,VWS V13.01,2013-06-20 10:39:00,
2013-06-20 04:45:00,55.6,22.1,29.87,SSE,157,0.0,0.0,27,0.00,,FEW220,0.00,VWS V13.01,2013-06-20 10:45:00,
2013-06-20 04:50:00,55.0,22.5,29.87,SSE,157,0.0,0.0,28,0.00,,FEW220,0.00,VWS V13.01,2013-06-20 10:50:00,
2013-06-20 04:55:00,54.5,22.9,29.87,SSE,156,0.0,0.0,29,0.00,,FEW220,0.00,VWS V13.01,2013-06-20 10:55:00,
2013-06-20 05:00:00,54.0,23.2,29.87,East,87,0.0,0.0,30,0.00,,FEW220,0.00,VWS V13.01,2013-06-20 11:00:00,
2013-06-20 05:05:00,53.6,23.7,29.87,East,87,0.0,0.0,31,0.00,,FEW220,0.00,VWS V13.01,2013-06-20 11:05:00,
2013-06-20 05:10:00,53.4,25.8,29.87,East,80,2.2,3.1,34,0.00,,FEW220,0.00,VWS V13.01,2013-06-20 11:10:00,
2013-06-20 05:15:00,53.1,26.1,29.87,East,81,0.0,3.1,35,0.00,,FEW220,0.00,VWS V13.01,2013-06-20 11:15:00,
2013-06-20 05:20:00,52.9,26.7,29.87,East,80,0.0,0.0,36,0.00,,FEW220,0.00,VWS V13.01,2013-06-20 11:20:00,
2013-06-20 05:25:00,53.1,26.8,29.87,East,81,2.7,3.1,36,0.00,,FEW220,0.00,VWS V13.01,2013-06-20 11:25:00,
2013-06-20 05:30:00,53.1,27.5,29.87,ESE,106,2.7,3.1,37,0.00,,FEW220,0.00,VWS V13.01,2013-06-20 11:30:00,
2013-06-20 05:35:00,53.1,27.5,29.87,ESE,106,0.0,2.7,37,0.00,,FEW220,0.00,VWS V13.01,2013-06-20 11:35:00,
2013-06-20 05:40:00,53.2,27.7,29.90,ESE,106,0.0,2.7,37,0.00,,FEW220,0.00,VWS V13.01,2013-06-20 11:40:00,
2013-06-20 05:45:00,53.2,27.7,29.90,ESE,106,0.0,0.0,37,0.00,,FEW220,0.00,VWS V13.01,2013-06-20 11:45:00,
2013-06-20 05:50:00,53.1,27.5,29.90,ESE,106,0.0,0.0,37,0.00,,FEW220,0.00,VWS V13.01,2013-06-20 11:50:00,
2013-06-20 05:55:00,53.1,28.1,29.90,ESE,106,0.0,0.0,38,0.00,,FEW220,0.00,VWS V13.01,2013-06-20 11:55:00,
2013-06-20 06:00:00,53.1,28.1,29.90,ESE,106,0.0,0.0,38,0.00,,FEW220,0.00,VWS V13.01,2013-06-20 12:00:00,
2013-06-20 06:05:00,53.1,28.1,29.90,ESE,106,0.0,0.0,38,0.00,,FEW220,0.00,VWS V13.01,2013-06-20 12:05:00,
2013-06-20 06:10:00,53.1,28.8,29.90,ESE,106,0.0,0.0,39,0.00,,FEW220,0.00,VWS V13.01,2013-06-20 12:10:00,
2013-06-20 06:15:00,53.2,30.2,29.90,ESE,106,0.0,0.0,41,0.00,,FEW220,0.00,VWS V13.01,2013-06-20 12:15:00,
2013-06-20 06:20:00,53.4,30.3,29.90,East,99,0.0,3.1,41,0.00,,FEW220,0.00,VWS V13.01,2013-06-20 12:20:00,
2013-06-20 06:25:00,54.0,30.8,29.90,East,99,0.0,3.1,41,0.00,,FEW220,0.00,VWS V13.01,2013-06-20 12:25:00,
2013-06-20 06:30:00,54.5,31.9,29.90,East,94,0.0,0.0,42,0.00,,FEW220,0.00,VWS V13.01,2013-06-20 12:30:00,
2013-06-20 06:35:00,55.4,32.7,29.90,East,94,0.0,0.0,42,0.00,,FEW220,0.00,VWS V13.01,2013-06-20 12:35:00,
2013-06-20 06:40:00,56.1,33.4,29.93,East,94,0.0,0.0,42,0.00,,FEW220,0.00,VWS V13.01,2013-06-20 12:40:00,
2013-06-20 06:45:00,56.8,34.0,29.93,East,94,0.0,0.0,42,0.00,,FEW220,0.00,VWS V13.01,2013-06-20 12:45:00,
2013-06-20 06:50:00,57.6,34.7,29.93,East,94,0.0,0.0,42,0.00,,FEW220,0.00,VWS V13.01,2013-06-20 12:50:00,
2013-06-20 06:55:00,58.1,35.2,29.93,East,94,0.0,0.0,42,0.00,,FEW220,0.00,VWS V13.01,2013-06-20 12:55:00,
2013-06-20 07:00:00,59.0,35.3,29.93,East,94,0.0,0.0,41,0.00,,FEW220,0.00,VWS V13.01,2013-06-20 13:00:00,
2013-06-20 07:05:00,59.7,36.0,29.93,East,94,0.0,0.0,41,0.00,,FEW220,0.00,VWS V13.01,2013-06-20 13:05:00,
2013-06-20 07:10:00,60.6,36.8,29.93,SSE,149,0.0,2.7,41,0.00,,FEW220,0.00,VWS V13.01,2013-06-20 13:10:00,
2013-06-20 07:15:00,61.5,37.6,29.93,SSE,149,0.0,0.0,41,0.00,,FEW220,0.00,VWS V13.01,2013-06-20 13:15:00,
2013-06-20 07:20:00,62.4,37.8,29.93,SSE,149,0.0,0.0,40,0.00,,FEW220,0.00,VWS V13.01,2013-06-20 13:20:00,
2013-06-20 07:25:00,63.3,38.0,29.93,SSE,149,0.0,0.0,39,0.00,,FEW220,0.00,VWS V13.01,2013-06-20 13:25:00,
2013-06-20 07:30:00,63.9,37.8,29.93,SSE,149,0.0,0.0,38,0.00,,FEW220,0.00,VWS V13.01,2013-06-20 13:30:00,
2013-06-20 07:35:00,64.6,37.8,29.93,SSE,149,0.0,0.0,37,0.00,,FEW220,0.00,VWS V13.01,2013-06-20 13:35:00,
2013-06-20 07:40:00,65.3,37.7,29.93,SSE,149,0.0,2.2,36,0.00,,FEW220,0.00,VWS V13.01,2013-06-20 13:40:00,
2013-06-20 07:46:00,66.0,38.3,29.93,SSE,149,0.0,0.0,36,0.00,,FEW220,0.00,VWS V13.01,2013-06-20 13:46:00,
2013-06-20 07:51:00,66.7,38.2,29.93,SSE,149,0.0,0.0,35,0.00,,FEW220,0.00,VWS V13.01,2013-06-20 13:51:00,
2013-06-20 07:56:00,67.5,38.9,29.96,SSE,149,0.0,0.0,35,0.00,,FEW220,0.00,VWS V13.01,2013-06-20 13:56:00,
2013-06-20 08:01:00,67.8,39.2,29.96,SSE,149,2.2,2.2,35,0.00,,FEW220,0.00,VWS V13.01,2013-06-20 14:01:00,
2013-06-20 08:06:00,68.4,38.9,29.96,SSE,149,0.0,2.7,34,0.00,,FEW220,0.00,VWS V13.01,2013-06-20 14:06:00,
2013-06-20 08:11:00,68.9,39.4,29.96,SSE,149,2.2,2.7,34,0.00,,FEW220,0.00,VWS V13.01,2013-06-20 14:11:00,
2013-06-20 08:16:00,69.3,39.0,29.96,South,178,0.0,0.0,33,0.00,,FEW220,0.00,VWS V13.01,2013-06-20 14:16:00,
2013-06-20 08:21:00,69.6,39.3,29.96,ESE,120,2.7,5.4,33,0.00,,FEW220,0.00,VWS V13.01,2013-06-20 14:21:00,
2013-06-20 08:26:00,70.0,38.8,29.96,WSW,243,2.2,5.4,32,0.00,,FEW220,0.00,VWS V13.01,2013-06-20 14:26:00,
2013-06-20 08:31:00,70.0,38.8,29.96,SSE,155,3.1,4.0,32,0.00,,FEW220,0.00,VWS V13.01,2013-06-20 14:31:00,
2013-06-20 08:36:00,70.2,38.1,29.96,WSW,240,2.2,5.8,31,0.00,,FEW220,0.00,VWS V13.01,2013-06-20 14:36:00,
2013-06-20 08:41:00,70.3,38.3,29.96,South,179,2.7,5.8,31,0.00,,FEW220,0.00,VWS V13.01,2013-06-20 14:41:00,
2013-06-20 08:46:00,70.7,38.6,29.96,SW,221,3.6,3.6,31,0.00,,FEW220,0.00,VWS V13.01,2013-06-20 14:46:00,
2013-06-20 08:51:00,71.1,36.3,29.96,South,174,0.0,5.8,28,0.00,,FEW220,0.00,VWS V13.01,2013-06-20 14:51:00,
2013-06-20 08:56:00,71.4,34.8,29.96,SE,127,4.9,5.8,26,0.00,,FEW220,0.00,VWS V13.01,2013-06-20 14:56:00,
2013-06-20 09:01:00,72.0,33.2,29.96,SE,125,4.0,5.4,24,0.00,,FEW220,0.00,VWS V13.01,2013-06-20 15:01:00,
2013-06-20 09:06:00,72.1,33.4,29.96,SW,224,3.1,5.4,24,0.00,,FEW220,0.00,VWS V13.01,2013-06-20 15:06:00,
2013-06-20 09:11:00,72.1,31.2,29.96,West,261,0.0,6.3,22,0.00,,FEW220,0.00,VWS V13.01,2013-06-20 15:11:00,
2013-06-20 09:16:00,72.7,31.7,29.96,NE,52,4.0,4.0,22,0.00,,FEW220,0.00,VWS V13.01,2013-06-20 15:16:00,
2013-06-20 09:21:00,73.4,31.1,29.96,South,172,4.0,4.9,21,0.00,,FEW220,0.00,VWS V13.01,2013-06-20 15:21:00,
2013-06-20 09:26:00,73.6,27.5,29.96,SE,140,0.0,6.3,18,0.00,,FEW220,0.00,VWS V13.01,2013-06-20 15:26:00,
2013-06-20 09:31:00,73.8,24.8,29.96,ENE,72,2.2,4.0,16,0.00,,FEW220,0.00,VWS V13.01,2013-06-20 15:31:00,
2013-06-20 09:36:00,74.5,20.5,29.96,East,90,5.8,6.3,13,0.00,,FEW220,0.00,VWS V13.01,2013-06-20 15:36:00,
2013-06-20 09:41:00,74.5,20.5,29.96,East,100,2.7,6.3,13,0.00,,FEW220,0.00,VWS V13.01,2013-06-20 15:41:00,
2013-06-20 09:47:00,75.2,21.0,29.96,ENE,65,0.0,0.0,13,0.00,,FEW220,0.00,VWS V13.01,2013-06-20 15:47:00,
2013-06-20 09:52:00,75.9,21.6,29.96,ESE,119,0.0,0.0,13,0.00,,FEW220,0.00,VWS V13.01,2013-06-20 15:52:00,
2013-06-20 09:57:00,75.9,15.5,29.96,South,170,6.3,6.3,10,0.00,,FEW220,0.00,VWS V13.01,2013-06-20 15:57:00,
2013-06-20 10:02:00,76.3,15.8,29.96,ENE,59,2.7,3.6,10,0.00,,FEW220,0.00,VWS V13.01,2013-06-20 16:02:00,
2013-06-20 10:07:00,77.2,16.5,29.96,SE,135,2.2,4.9,10,0.00,,FEW220,0.00,VWS V13.01,2013-06-20 16:07:00,
2013-06-20 10:12:00,77.5,11.6,29.96,East,83,0.0,6.3,8,0.00,,FEW220,0.00,VWS V13.01,2013-06-20 16:12:00,
2013-06-20 10:17:00,77.9,11.9,29.96,ESE,112,2.7,4.9,8,0.00,,FEW220,0.00,VWS V13.01,2013-06-20 16:17:00,
2013-06-20 10:22:00,77.9,11.9,29.96,East,92,4.9,8.7,8,0.00,,FEW220,0.00,VWS V13.01,2013-06-20 16:22:00,
2013-06-20 10:27:00,77.5,11.6,29.96,ENE,71,3.1,8.7,8,0.00,,FEW220,0.00,VWS V13.01,2013-06-20 16:27:00,
2013-06-20 10:32:00,77.7,11.8,29.96,ENE,68,0.0,4.9,8,0.00,,FEW220,0.00,VWS V13.01,2013-06-20 16:32:00,
2013-06-20 10:37:00,78.3,12.2,29.96,East,94,3.1,7.6,8,0.00,,FEW220,0.00,VWS V13.01,2013-06-20 16:37:00,
2013-06-20 10:42:00,79.0,9.7,29.93,East,100,5.4,7.6,7,0.00,,FEW220,0.00,VWS V13.01,2013-06-20 16:42:00,
2013-06-20 10:47:00,79.0,9.7,29.93,ENE,71,3.1,6.3,7,0.00,,FEW220,0.00,VWS V13.01,2013-06-20 16:47:00,
2013-06-20 10:52:00,79.0,9.7,29.93,East,101,6.3,8.1,7,0.00,,FEW220,0.00,VWS V13.01,2013-06-20 16:52:00,
2013-06-20 10:57:00,78.6,12.4,29.93,ENE,62,6.3,8.1,8,0.00,,FEW220,0.00,VWS V13.01,2013-06-20 16:57:00,
2013-06-20 11:02:00,79.0,9.7,29.93,WSW,247,2.7,3.1,7,0.00,,FEW220,0.00,VWS V13.01,2013-06-20 17:02:00,
2013-06-20 11:07:00,79.9,10.4,29.93,NE,35,2.2,3.6,7,0.00,,FEW220,0.00,VWS V13.01,2013-06-20 17:07:00,
2013-06-20 11:12:00,80.6,10.9,29.90,East,91,3.6,5.8,7,0.00,,FEW220,0.00,VWS V13.01,2013-06-20 17:12:00,
2013-06-20 11:17:00,81.3,11.4,29.90,NE,52,2.7,6.3,7,0.00,,FEW220,0.00,VWS V13.01,2013-06-20 17:17:00,
2013-06-20 11:22:00,81.5,11.6,29.90,East,80,0.0,6.3,7,0.00,,FEW220,0.00,VWS V13.01,2013-06-20 17:22:00,
2013-06-20 11:27:00,81.7,11.7,29.90,SSE,150,4.0,6.3,7,0.00,,FEW220,0.00,VWS V13.01,2013-06-20 17:27:00,
2013-06-20 11:32:00,81.3,11.4,29.90,East,88,2.7,7.6,7,0.00,,FEW220,0.00,VWS V13.01,2013-06-20 17:32:00,
2013-06-20 11:37:00,81.3,11.4,29.90,SE,144,0.0,7.6,7,0.00,,FEW220,0.00,VWS V13.01,2013-06-20 17:37:00,
2013-06-20 11:42:00,81.1,11.3,29.90,East,96,4.0,7.6,7,0.00,,FEW220,0.00,VWS V13.01,2013-06-20 17:42:00,
2013-06-20 11:47:00,81.1,11.3,29.90,NNW,328,0.0,6.3,7,0.00,,FEW220,0.00,VWS V13.01,2013-06-20 17:47:00,
2013-06-20 11:53:00,81.7,11.7,29.90,ESE,122,0.0,6.3,7,0.00,,FEW220,0.00,VWS V13.01,2013-06-20 17:53:00,
2013-06-20 11:58:00,82.9,9.1,29.90,East,80,6.3,6.3,6,0.00,,FEW220,0.00,VWS V13.01,2013-06-20 17:58:00,
2013-06-20 12:03:00,83.3,9.4,29.90,East,100,3.1,3.6,6,0.00,,FEW220,0.00,VWS V13.01,2013-06-20 18:03:00,
2013-06-20 12:08:00,83.8,9.8,29.90,ENE,76,2.2,4.9,6,0.00,,FEW220,0.00,VWS V13.01,2013-06-20 18:08:00,
2013-06-20 12:13:00,84.6,10.3,29.90,North,353,0.0,4.9,6,0.00,,FEW220,0.00,VWS V13.01,2013-06-20 18:13:00,
2013-06-20 12:18:00,84.9,10.6,29.90,ENE,65,3.1,4.0,6,0.00,,FEW220,0.00,VWS V13.01,2013-06-20 18:18:00,
2013-06-20 12:23:00,84.4,10.2,29.90,East,95,4.0,6.3,6,0.00,,FEW220,0.00,VWS V13.01,2013-06-20 18:23:00,
2013-06-20 12:28:00,83.7,9.7,29.90,NE,56,5.4,7.6,6,0.00,,FEW220,0.00,VWS V13.01,2013-06-20 18:28:00,
2013-06-20 12:33:00,82.8,9.0,29.90,ENE,75,2.7,9.2,6,0.00,,FEW220,0.00,VWS V13.01,2013-06-20 18:33:00,
2013-06-20 12:38:00,83.3,9.4,29.90,ENE,57,11.9,11.9,6,0.00,,FEW220,0.00,VWS V13.01,2013-06-20 18:38:00,
2013-06-20 12:43:00,82.8,9.0,29.87,East,88,11.0,11.9,6,0.00,,FEW220,0.00,VWS V13.01,2013-06-20 18:43:00,
2013-06-20 12:48:00,82.4,8.8,29.87,ENE,60,3.1,8.3,6,0.00,,FEW220,0.00,VWS V13.01,2013-06-20 18:48:00,
2013-06-20 12:53:00,82.4,8.8,29.87,East,96,4.9,8.3,6,0.00,,FEW220,0.00,VWS V13.01,2013-06-20 18:53:00,
2013-06-20 12:58:00,82.2,12.1,29.87,East,95,0.0,8.3,7,0.00,,FEW220,0.00,VWS V13.01,2013-06-20 18:58:00,
2013-06-20 13:03:00,82.6,8.9,29.87,East,101,4.9,8.7,6,0.00,,FEW220,0.00,VWS V13.01,2013-06-20 19:03:00,
2013-06-20 13:08:00,82.8,9.0,29.87,South,179,5.8,8.7,6,0.00,,FEW220,0.00,VWS V13.01,2013-06-20 19:08:00,
2013-06-20 13:13:00,82.4,8.8,29.87,ESE,109,2.7,8.7,6,0.00,,FEW220,0.00,VWS V13.01,2013-06-20 19:13:00,
2013-06-20 13:18:00,83.3,9.4,29.87,East,90,0.0,8.1,6,0.00,,FEW220,0.00,VWS V13.01,2013-06-20 19:18:00,
2013-06-20 13:23:00,84.0,9.9,29.87,NE,54,3.1,8.7,6,0.00,,FEW220,0.00,VWS V13.01,2013-06-20 19:23:00,
2013-06-20 13:28:00,84.4,10.2,29.87,ESE,110,4.9,8.7,6,0.00,,FEW220,0.00,VWS V13.01,2013-06-20 19:28:00,
2013-06-20 13:33:00,84.6,10.3,29.87,ENE,73,2.2,8.3,6,0.00,,FEW220,0.00,VWS V13.01,2013-06-20 19:33:00,
2013-06-20 13:38:00,85.1,10.7,29.87,North,5,4.9,8.3,6,0.00,,FEW220,0.00,VWS V13.01,2013-06-20 19:38:00,
2013-06-20 13:43:00,85.8,11.2,29.87,NNE,22,5.4,8.3,6,0.00,,FEW220,0.00,VWS V13.01,2013-06-20 19:43:00,
2013-06-20 13:48:00,86.2,11.5,29.87,ENE,73,5.4,5.4,6,0.00,,FEW220,0.00,VWS V13.01,2013-06-20 19:48:00,
2013-06-20 13:53:00,85.8,11.2,29.87,East,85,3.6,8.7,6,0.00,,FEW220,0.00,VWS V13.01,2013-06-20 19:53:00,
2013-06-20 13:58:00,85.6,11.1,29.87,ESE,114,3.1,8.7,6,0.00,,FEW220,0.00,VWS V13.01,2013-06-20 19:58:00,
2013-06-20 14:03:00,86.0,11.4,29.87,East,91,2.2,8.1,6,0.00,,FEW220,0.00,VWS V13.01,2013-06-20 20:03:00,
2013-06-20 14:08:00,86.4,11.6,29.84,East,85,7.6,9.6,6,0.00,,FEW220,0.00,VWS V13.01,2013-06-20 20:08:00,
2013-06-20 14:14:00,86.2,11.5,29.84,East,82,3.6,10.5,6,0.00,,FEW220,0.00,VWS V13.01,2013-06-20 20:14:00,
2013-06-20 14:19:00,86.7,11.9,29.84,NE,51,3.6,6.3,6,0.00,,FEW220,0.00,VWS V13.01,2013-06-20 20:19:00,
2013-06-20 14:24:00,87.1,12.1,29.84,East,85,5.4,6.3,6,0.00,,FEW220,0.00,VWS V13.01,2013-06-20 20:24:00,
2013-06-20 14:29:00,87.1,12.1,29.84,ENE,66,3.6,8.3,6,0.00,,FEW220,0.00,VWS V13.01,2013-06-20 20:29:00,
2013-06-20 14:34:00,87.1,12.1,29.84,South,172,5.4,6.3,6,0.00,,FEW220,0.00,VWS V13.01,2013-06-20 20:34:00,
2013-06-20 14:39:00,87.3,12.2,29.84,ENE,58,5.4,10.5,6,0.00,,FEW220,0.00,VWS V13.01,2013-06-20 20:39:00,
2013-06-20 14:44:00,87.4,12.4,29.84,East,87,8.1,10.5,6,0.00,,FEW220,0.00,VWS V13.01,2013-06-20 20:44:00,
2013-06-20 14:49:00,87.4,12.4,29.84,ENE,71,4.0,7.2,6,0.00,,FEW220,0.00,VWS V13.01,2013-06-20 20:49:00,
2013-06-20 14:54:00,87.6,12.5,29.84,East,99,6.3,7.6,6,0.00,,FEW220,0.00,VWS V13.01,2013-06-20 20:54:00,
2013-06-20 14:59:00,87.6,12.5,29.84,ENE,63,3.1,7.6,6,0.00,,FEW220,0.00,VWS V13.01,2013-06-20 20:59:00,
2013-06-20 15:04:00,87.4,12.4,29.84,South,180,2.7,8.7,6,0.00,,FEW220,0.00,VWS V13.01,2013-06-20 21:04:00,
2013-06-20 15:09:00,87.8,8.6,29.81,NE,56,0.0,8.7,5,0.00,,FEW220,0.00,VWS V13.01,2013-06-20 21:09:00,
2013-06-20 15:14:00,88.7,9.2,29.81,East,101,3.6,8.7,5,0.00,,FEW220,0.00,VWS V13.01,2013-06-20 21:14:00,
2013-06-20 15:19:00,88.9,9.3,29.81,East,92,5.8,6.3,5,0.00,,SCT250,0.00,VWS V13.01,2013-06-20 21:19:00,
2013-06-20 15:24:00,88.7,9.2,29.84,NE,51,3.6,8.7,5,0.00,,SCT250,0.00,VWS V13.01,2013-06-20 21:24:00,
2013-06-20 15:29:00,88.7,9.2,29.84,East,91,3.1,8.7,5,0.00,,SCT250,0.00,VWS V13.01,2013-06-20 21:29:00,
2013-06-20 15:34:00,89.2,9.6,29.84,NE,51,4.9,5.8,5,0.00,,SCT250,0.00,VWS V13.01,2013-06-20 21:34:00,
2013-06-20 15:39:00,89.4,9.7,29.81,East,81,5.8,6.3,5,0.00,,SCT250,0.00,VWS V13.01,2013-06-20 21:39:00,
2013-06-20 15:44:00,89.2,9.6,29.81,SE,136,4.0,7.6,5,0.00,,SCT250,0.00,VWS V13.01,2013-06-20 21:44:00,
2013-06-20 15:49:00,89.6,9.8,29.81,NW,323,2.7,4.0,5,0.00,,SCT250,0.00,VWS V13.01,2013-06-20 21:49:00,
2013-06-20 15:54:00,90.7,10.6,29.81,NW,313,0.0,4.9,5,0.00,,SCT250,0.00,VWS V13.01,2013-06-20 21:54:00,
2013-06-20 15:59:00,91.6,6.3,29.81,NW,326,2.7,4.9,4,0.00,,SCT250,0.00,VWS V13.01,2013-06-20 21:59:00,
2013-06-20 16:04:00,92.1,6.6,29.81,ENE,64,4.0,4.9,4,0.00,,SCT250,0.00,VWS V13.01,2013-06-20 22:04:00,
2013-06-20 16:09:00,91.8,6.4,29.81,ENE,58,2.2,7.6,4,0.00,,SCT250,0.00,VWS V13.01,2013-06-20 22:09:00,
2013-06-20 16:14:00,91.6,6.3,29.81,West,265,0.0,7.6,4,0.00,,SCT250,0.00,VWS V13.01,2013-06-20 22:14:00,
2013-06-20 16:19:00,91.2,10.9,29.81,ENE,70,3.1,5.8,5,0.00,,SCT250,0.00,VWS V13.01,2013-06-20 22:19:00,
2013-06-20 16:24:00,91.4,6.1,29.81,NW,323,0.0,6.7,4,0.00,,SCT250,0.00,VWS V13.01,2013-06-20 22:24:00,
2013-06-20 16:29:00,91.8,6.4,29.81,NNW,329,0.0,6.7,4,0.00,,SCT250,0.00,VWS V13.01,2013-06-20 22:29:00,
2013-06-20 16:34:00,92.3,6.8,29.81,West,265,2.2,3.6,4,0.00,,SCT250,0.00,VWS V13.01,2013-06-20 22:34:00,
2013-06-20 16:40:00,92.8,7.1,29.81,WNW,284,2.7,4.9,4,0.00,,SCT250,0.00,VWS V13.01,2013-06-20 22:40:00,
2013-06-20 16:45:00,93.0,7.2,29.81,NE,52,0.0,4.9,4,0.00,,SCT250,0.00,VWS V13.01,2013-06-20 22:45:00,
2013-06-20 16:50:00,93.6,7.6,29.81,North,357,3.1,3.1,4,0.00,,SCT250,0.00,VWS V13.01,2013-06-20 22:50:00,
2013-06-20 16:55:00,93.9,7.8,29.81,WSW,244,0.0,3.1,4,0.00,,SCT250,0.00,VWS V13.01,2013-06-20 22:55:00,
2013-06-20 17:00:00,94.3,8.1,29.81,North,11,2.2,3.6,4,0.00,,SCT250,0.00,VWS V13.01,2013-06-20 23:00:00,
2013-06-20 17:05:00,94.3,8.1,29.81,North,353,2.7,4.9,4,0.00,,BKN250,0.00,VWS V13.01,2013-06-20 23:05:00,
2013-06-20 17:10:00,94.3,8.1,29.81,North,357,0.0,4.9,4,0.00,,BKN250,0.00,VWS V13.01,2013-06-20 23:10:00,
2013-06-20 17:15:00,94.1,8.0,29.81,ENE,64,5.4,5.4,4,0.00,,BKN250,0.00,VWS V13.01,2013-06-20 23:15:00,
2013-06-20 17:20:00,92.8,7.1,29.81,ENE,66,5.8,6.3,4,0.00,,BKN250,0.00,VWS V13.01,2013-06-20 23:20:00,
2013-06-20 17:25:00,92.1,6.6,29.81,North,10,2.7,6.3,4,0.00,,BKN250,0.00,VWS V13.01,2013-06-20 23:25:00,
2013-06-20 17:30:00,92.3,6.8,29.81,NE,38,0.0,0.0,4,0.00,,BKN250,0.00,VWS V13.01,2013-06-20 23:30:00,
2013-06-20 17:35:00,92.8,7.1,29.81,WNW,289,3.6,3.6,4,0.00,,BKN250,0.00,VWS V13.01,2013-06-20 23:35:00,
2013-06-20 17:40:00,93.0,7.2,29.81,North,4,0.0,3.6,4,0.00,,BKN250,0.00,VWS V13.01,2013-06-20 23:40:00,
2013-06-20 17:45:00,93.0,7.2,29.81,NW,324,0.0,0.0,4,0.00,,BKN250,0.00,VWS V13.01,2013-06-20 23:45:00,
2013-06-20 17:50:00,92.8,7.1,29.81,NE,35,0.0,3.1,4,0.00,,BKN250,0.00,VWS V13.01,2013-06-20 23:50:00,
2013-06-20 17:55:00,92.8,7.1,29.81,ENE,57,0.0,3.1,4,0.00,,BKN250,0.00,VWS V13.01,2013-06-20 23:55:00,
2013-06-20 18:00:00,92.5,6.9,29.81,East,81,0.0,0.0,4,0.00,,BKN250,0.00,VWS V13.01,2013-06-21 00:00:00,
2013-06-20 18:05:00,91.6,6.3,29.81,WNW,297,0.0,2.7,4,0.00,,SCT250,0.00,VWS V13.01,2013-06-21 00:05:00,
2013-06-20 18:10:00,90.7,10.6,29.81,NNE,28,0.0,2.7,5,0.00,,SCT250,0.00,VWS V13.01,2013-06-21 00:10:00,
2013-06-20 18:15:00,89.4,9.7,29.81,North,5,0.0,0.0,5,0.00,,SCT250,0.00,VWS V13.01,2013-06-21 00:15:00,
2013-06-20 18:20:00,88.9,9.3,29.81,North,5,0.0,0.0,5,0.00,,SCT250,0.00,VWS V13.01,2013-06-21 00:20:00,
2013-06-20 18:26:00,88.7,9.2,29.81,North,5,0.0,2.2,5,0.00,,SCT250,0.00,VWS V13.01,2013-06-21 00:26:00,
2013-06-20 18:31:00,88.3,8.9,29.81,NNE,22,0.0,2.2,5,0.00,,SCT250,0.00,VWS V13.01,2013-06-21 00:31:00,
2013-06-20 18:36:00,88.3,8.9,29.81,North,0,0.0,2.2,5,0.00,,SCT250,0.00,VWS V13.01,2013-06-21 00:36:00,
2013-06-20 18:41:00,88.5,9.1,29.81,North,0,0.0,2.2,5,0.00,,SCT250,0.00,VWS V13.01,2013-06-21 00:41:00,
2013-06-20 18:46:00,88.0,8.7,29.81,NNW,341,0.0,0.0,5,0.00,,SCT250,0.00,VWS V13.01,2013-06-21 00:46:00,
2013-06-20 18:51:00,87.8,8.6,29.81,NW,319,0.0,2.7,5,0.00,,SCT250,0.00,VWS V13.01,2013-06-21 00:51:00,
2013-06-20 18:56:00,87.8,8.6,29.81,North,353,0.0,2.7,5,0.00,,SCT250,0.00,VWS V13.01,2013-06-21 00:56:00,
2013-06-20 19:01:00,87.6,12.5,29.81,North,353,0.0,0.0,6,0.00,,SCT250,0.00,VWS V13.01,2013-06-21 01:01:00,
2013-06-20 19:06:00,87.1,12.1,29.81,North,353,0.0,0.0,6,0.00,,SCT250,0.00,VWS V13.01,2013-06-21 01:06:00,
2013-06-20 19:11:00,86.5,11.7,29.81,North,353,0.0,0.0,6,0.00,,SCT250,0.00,VWS V13.01,2013-06-21 01:11:00,
2013-06-20 19:16:00,86.2,11.5,29.81,North,0,0.0,0.0,6,0.00,,SCT250,0.00,VWS V13.01,2013-06-21 01:16:00,
2013-06-20 19:21:00,85.6,11.1,29.81,North,353,0.0,0.0,6,0.00,,SCT250,0.00,VWS V13.01,2013-06-21 01:21:00,
2013-06-20 19:26:00,85.3,10.8,29.81,North,353,0.0,0.0,6,0.00,,SCT250,0.00,VWS V13.01,2013-06-21 01:26:00,
2013-06-20 19:31:00,84.9,10.6,29.81,North,357,0.0,0.0,6,0.00,,SCT250,0.00,VWS V13.01,2013-06-21 01:31:00,
2013-06-20 19:36:00,84.6,10.3,29.81,North,357,0.0,0.0,6,0.00,,SCT250,0.00,VWS V13.01,2013-06-21 01:36:00,
2013-06-20 19:41:00,83.7,9.7,29.81,NNW,337,0.0,0.0,6,0.00,,SCT250,0.00,VWS V13.01,2013-06-21 01:41:00,
2013-06-20 19:46:00,83.1,9.3,29.81,North,357,0.0,0.0,6,0.00,,SCT250,0.00,VWS V13.01,2013-06-21 01:46:00,
2013-06-20 19:51:00,82.6,8.9,29.81,North,2,0.0,0.0,6,0.00,,SCT250,0.00,VWS V13.01,2013-06-21 01:51:00,
2013-06-20 19:56:00,82.0,11.9,29.81,NNE,31,0.0,2.2,7,0.00,,SCT250,0.00,VWS V13.01,2013-06-21 01:56:00,
2013-06-20 20:01:00,81.3,11.4,29.81,NNE,18,0.0,3.1,7,0.00,,SCT250,0.00,VWS V13.01,2013-06-21 02:01:00,
2013-06-20 20:06:00,81.0,11.2,29.81,ENE,69,0.0,5.4,7,0.00,,SCT250,0.00,VWS V13.01,2013-06-21 02:06:00,
2013-06-20 20:11:00,80.6,10.9,29.81,North,357,0.0,5.4,7,0.00,,SCT250,0.00,VWS V13.01,2013-06-21 02:11:00,
2013-06-20 20:16:00,80.2,10.6,29.81,NNE,28,0.0,0.0,7,0.00,,SCT250,0.00,VWS V13.01,2013-06-21 02:16:00,
2013-06-20 20:21:00,79.9,10.4,29.81,East,101,0.0,2.2,7,0.00,,SCT250,0.00,VWS V13.01,2013-06-21 02:21:00,
2013-06-20 20:26:00,79.7,10.2,29.84,East,101,0.0,2.2,7,0.00,,SCT250,0.00,VWS V13.01,2013-06-21 02:26:00,
2013-06-20 20:31:00,79.2,9.8,29.84,ENE,71,0.0,0.0,7,0.00,,SCT250,0.00,VWS V13.01,2013-06-21 02:31:00,
2013-06-20 20:36:00,78.8,9.6,29.84,NNE,26,0.0,0.0,7,0.00,,SCT250,0.00,VWS V13.01,2013-06-21 02:36:00,
2013-06-20 20:41:00,78.4,12.3,29.84,NNE,26,0.0,0.0,8,0.00,,SCT250,0.00,VWS V13.01,2013-06-21 02:41:00,
2013-06-20 20:47:00,78.3,12.2,29.84,West,276,2.7,4.0,8,0.00,,SCT250,0.00,VWS V13.01,2013-06-21 02:47:00,
2013-06-20 20:52:00,78.1,12.0,29.84,South,188,0.0,4.0,8,0.00,,SCT250,0.00,VWS V13.01,2013-06-21 02:52:00,
2013-06-20 20:57:00,77.7,11.8,29.87,SW,235,0.0,4.0,8,0.00,,SCT250,0.00,VWS V13.01,2013-06-21 02:57:00,
2013-06-20 21:02:00,77.5,11.6,29.87,SW,235,0.0,0.0,8,0.00,,SCT250,0.00,VWS V13.01,2013-06-21 03:02:00,
2013-06-20 21:07:00,77.2,11.4,29.87,SW,235,0.0,0.0,8,0.00,,SCT250,0.00,VWS V13.01,2013-06-21 03:07:00,
2013-06-20 21:12:00,76.8,11.1,29.87,NE,39,0.0,0.0,8,0.00,,SCT250,0.00,VWS V13.01,2013-06-21 03:12:00,
2013-06-20 21:17:00,76.3,10.7,29.87,SE,137,4.0,4.0,8,0.00,,SCT250,0.00,VWS V13.01,2013-06-21 03:17:00,
2013-06-20 21:22:00,75.9,10.4,29.87,SE,137,0.0,4.0,8,0.00,,SCT250,0.00,VWS V13.01,2013-06-21 03:22:00,
2013-06-20 21:27:00,75.4,10.0,29.87,SE,137,0.0,4.0,8,0.00,,SCT250,0.00,VWS V13.01,2013-06-21 03:27:00,
2013-06-20 21:32:00,75.0,9.8,29.87,NW,305,2.7,2.7,8,0.00,,SCT250,0.00,VWS V13.01,2013-06-21 03:32:00,
2013-06-20 21:37:00,75.0,9.8,29.87,NE,45,0.0,2.7,8,0.00,,SCT250,0.00,VWS V13.01,2013-06-21 03:37:00,
2013-06-20 21:42:00,75.2,9.9,29.87,ESE,116,3.1,3.6,8,0.00,,SCT250,0.00,VWS V13.01,2013-06-21 03:42:00,
2013-06-20 21:47:00,75.6,15.2,29.87,ESE,108,2.2,2.2,10,0.00,,SCT250,0.00,VWS V13.01,2013-06-21 03:47:00,
2013-06-20 21:52:00,75.7,15.4,29.87,North,357,0.0,2.2,10,0.00,,SCT250,0.00,VWS V13.01,2013-06-21 03:52:00,
2013-06-20 21:57:00,75.6,15.2,29.87,North,357,0.0,2.2,10,0.00,,SCT250,0.00,VWS V13.01,2013-06-21 03:57:00,
2013-06-20 22:01:00,75.6,15.2,29.87,SE,124,0.0,0.0,10,0.00,,SCT250,0.00,VWS V13.01,2013-06-21 04:01:00,
2013-06-20 22:06:00,75.2,14.9,29.87,SE,124,0.0,0.0,10,0.00,,SCT250,0.00,VWS V13.01,2013-06-21 04:06:00,
2013-06-20 22:11:00,74.8,16.9,29.90,SE,124,0.0,0.0,11,0.00,,SCT250,0.00,VWS V13.01,2013-06-21 04:11:00,
2013-06-20 22:16:00,74.5,16.6,29.90,SE,124,0.0,0.0,11,0.00,,SCT250,0.00,VWS V13.01,2013-06-21 04:16:00,
2013-06-20 22:21:00,74.1,16.3,29.90,SE,124,0.0,0.0,11,0.00,,SCT250,0.00,VWS V13.01,2013-06-21 04:21:00,
2013-06-20 22:26:00,73.8,19.9,29.90,SE,124,0.0,0.0,13,0.00,,SCT250,0.00,VWS V13.01,2013-06-21 04:26:00,
2013-06-20 22:31:00,73.2,24.4,29.90,SE,124,0.0,0.0,16,0.00,,SCT250,0.00,VWS V13.01,2013-06-21 04:31:00,
2013-06-20 22:36:00,72.9,28.2,29.90,SE,125,0.0,0.0,19,0.00,,SCT250,0.00,VWS V13.01,2013-06-21 04:36:00,
2013-06-20 22:41:00,72.7,30.5,29.90,SW,233,0.0,0.0,21,0.00,,SCT250,0.00,VWS V13.01,2013-06-21 04:41:00,
2013-06-20 22:46:00,72.5,30.4,29.90,WNW,282,2.7,3.6,21,0.00,,SCT250,0.00,VWS V13.01,2013-06-21 04:46:00,
2013-06-20 22:51:00,72.7,31.7,29.90,WNW,292,0.0,3.6,22,0.00,,SCT250,0.00,VWS V13.01,2013-06-21 04:51:00,
2013-06-20 22:56:00,72.7,31.7,29.90,WNW,283,0.0,3.6,22,0.00,,SCT250,0.00,VWS V13.01,2013-06-21 04:56:00,
2013-06-20 23:01:00,72.7,31.7,29.90,WNW,283,0.0,0.0,22,0.00,,SCT250,0.00,VWS V13.01,2013-06-21 05:01:00,
2013-06-20 23:06:00,72.7,31.7,29.90,WSW,256,0.0,2.7,22,0.00,,BKN220,0.00,VWS V13.01,2013-06-21 05:06:00,
2013-06-20 23:11:00,72.5,31.5,29.90,WNW,300,0.0,2.7,22,0.00,,BKN220,0.00,VWS V13.01,2013-06-21 05:11:00,
2013-06-20 23:16:00,72.5,31.5,29.90,WNW,300,0.0,0.0,22,0.00,,BKN220,0.00,VWS V13.01,2013-06-21 05:16:00,
2013-06-20 23:21:00,72.5,31.5,29.90,WNW,286,0.0,3.6,22,0.00,,BKN220,0.00,VWS V13.01,2013-06-21 05:21:00,
2013-06-20 23:27:00,72.3,31.4,29.93,West,272,0.0,3.6,22,0.00,,BKN220,0.00,VWS V13.01,2013-06-21 05:27:00,
2013-06-20 23:32:00,72.1,31.2,29.93,West,272,0.0,0.0,22,0.00,,BKN220,0.00,VWS V13.01,2013-06-21 05:32:00,
2013-06-20 23:37:00,71.8,32.0,29.93,West,272,0.0,0.0,23,0.00,,BKN220,0.00,VWS V13.01,2013-06-21 05:37:00,
2013-06-20 23:42:00,71.4,32.8,29.93,West,273,2.7,3.1,24,0.00,,BKN220,0.00,VWS V13.01,2013-06-21 05:42:00,
2013-06-20 23:47:00,71.6,31.9,29.93,WNW,293,3.1,3.1,23,0.00,,BKN220,0.00,VWS V13.01,2013-06-21 05:47:00,
2013-06-20 23:52:00,72.0,31.1,29.93,West,274,2.7,6.3,22,0.00,,BKN220,0.00,VWS V13.01,2013-06-21 05:52:00,
2013-06-20 23:57:00,72.3,31.4,29.93,WNW,295,3.1,6.3,22,0.00,,BKN220,0.00,VWS V13.01,2013-06-21 05:57:00,